World > North America > United States > North Carolina

Nathans Creek, North Carolina Regional Weather

Lat: 36.45N, Lon: 81.39W
Wx Zone: NCZ001
Feedback

Nathans Creek, NC Regional Weather

Expires:201909191900;;034360
ASUS42 KRAH 191810
RWRRAH
NORTH CAROLINA WEATHER ROUNDUP
NATIONAL WEATHER SERVICE RALEIGH NC
200 PM EDT THU SEP 19 2019

NOTE: "FAIR" INDICATES FEW OR NO CLOUDS BELOW 12,000 FEET WITH NO
SIGNIFICANT WEATHER AND/OR OBSTRUCTIONS TO VISIBILITY.


NCZ001-053-055-056-065-067-191900-
WESTERN NORTH CAROLINA
  
CITY           SKY/WX    TMP DP  RH WIND       PRES   REMARKS
ASHEVILLE      CLOUDY    65  51  60 VRB7      30.31F                  
JEFFERSON      CLOUDY    56  51  84 SW3       30.35S                  
MORGANTON      CLOUDY    67  51  56 SE3       30.35S                  
HICKORY        CLOUDY    67  53  61 VRB5      30.31S                  
WILKESBORO     NOT AVBL                                               
RUTHERFORDTON  CLOUDY    68  52  56 S7        30.31S                  
MOUNT AIRY     PTSUNNY   69  55  59 SE5       30.33F                  
BOONE          CLOUDY    58  49  74 CALM      30.35S                  
$$
 

SKY/WX - Weather  TMP - Temperature  DP - Dew Point  RH - Relative Humidity
WIND - Wind Direction/Speed PRES - Barometric Pressure VSB - Visibility
WCI - Wind Chill Index E13G22 Wind - East Wind 13 mph/Gusts of 22 mph